Flag for Germany Weather for the Past 2 Weeks in Gronau (Westfalen), North Rhine-Westphalia, Germany

Now
33 °F

Mixture of precip. Low clouds.


Feels Like: 28 °F
Forecast: 22 / 35 °F
Wind: 5 mph from North

Location: Twenthe

Current Time: Feb 14, 2016 at 10:56:20 PM

Latest Report: Feb 14, 2016 at 9:00 PM


Visibility: 2 mi

Pressure: 29.44 "Hg

Humidity: 98%

Dew point: 32 °F

Location of Gronau (Westfalen)Location

Historic Weather in Gronau (Westfalen) — Graph

°F

Gronau (Westfalen) Temperature Yesterday

Maximum temperature yesterday: 40 °F (at 6:00 PM)
Minimum temperature yesterday: 29 °F (at 8:00 AM)
Average temperature yesterday: 35 °F

High & Low Weather Summary for the Past Weeks

 TemperatureHumidityPressure
High53 °F (Feb 1, 4:00 PM)99% (Feb 9, 8:00 PM)30.25 "Hg (Feb 9, 8:00 PM)
Low29 °F (Feb 13, 8:00 AM)60% (Feb 8, 2:00 PM)28.82 "Hg (Feb 9, 5:00 PM)
Average40 °F86%29.47 "Hg
* Reported Jan 30 10:00 PM — Feb 14 9:00 PM, Gronau (Westfalen), Weather by CustomWeather, © 2016

Note: Actual official high and low records may vary slightly from our data, if they occured in-between our weather recording intervals... More about our weather records

Advertising

Gronau (Westfalen) Weather History for the Previous 24 Hours

 ConditionsComfort  
Time TempWeatherWind HumidityBarometerVisibility
9:00 PM
Sun, Feb 14
33 °FMixture of precip. Low clouds.5 mph98%29.44 "Hg2 mi
8:00 PM33 °FSnow. Low clouds.3 mph99%29.41 "Hg2 mi
7:00 PM32 °FSnow. Low clouds.5 mph99%29.38 "Hg1 mi
6:00 PM32 °FSnow. Low clouds.3 mph99%29.35 "Hg1 mi
5:00 PM33 °FSnow. Low clouds.2 mph98%29.29 "Hg1 mi
4:00 PM33 °FSnow. Low clouds.2 mph97%29.26 "Hg1 mi
2:00 PM35 °FLight rain. Low clouds.5 mph94%29.21 "Hg4 mi
1:00 PM35 °FMixture of precip. Low clouds.6 mph95%29.21 "Hg4 mi
12:00 PM35 °FDrizzle. Low clouds.7 mph94%29.18 "Hg4 mi
11:00 AM35 °FMixture of precip. Low clouds.6 mph95%29.18 "Hg3 mi
10:00 AM35 °FDrizzle. Low clouds.6 mph96%29.15 "Hg2 mi
9:00 AM35 °FDrizzle. Low clouds.5 mph96%29.12 "Hg2 mi
8:00 AM35 °FLight rain. Low clouds.5 mph95%29.12 "Hg2 mi
7:00 AM35 °FDrizzle. Low clouds.5 mph95%29.09 "Hg2 mi
6:00 AM35 °FDrizzle. Low clouds.5 mph95%29.09 "Hg2 mi
5:00 AM35 °FLow clouds.6 mph95%29.06 "Hg2 mi
4:00 AM35 °FDrizzle. Low clouds.6 mph95%29.06 "Hg3 mi
3:00 AM35 °FDrizzle. Low clouds.6 mph94%29.06 "Hg3 mi
2:00 AM36 °FDrizzle. Overcast.6 mph88%29.06 "Hg4 mi
1:00 AM37 °FPassing clouds.6 mph83%29.06 "Hg6 mi
Weather by CustomWeather, © 2016

See weather overviewHow to use our weather pages